User: anonymous
Location: Clatteringshaws Loch
(55.0508°N, 4.2860°W)
Time: 07:17:18
(UTC+01:00)
Language:

ALOS - Orbit

View from above orbital plane
View from above orbital plane
View from above satellite
View from above satellite

Ground track
Ground track

The orbit data is extracted from the following two-line orbital elements,

1 28931U 06002A   14204.82062793  .00000313  00000-0  72566-4 0    98
2 28931 097.9808 261.6076 0002227 087.7148 003.5299 14.61216001452676
Epoch (UTC): 23 July 2014 19:41:42
Eccentricity: 0.0002227
inclination: 97.9808°
perigee height: 687 km
apogee height: 691 km
right ascension of ascending node: 261.6076°
argument of perigee: 87.7148°
revolutions per day: 14.61216001
mean anomaly at epoch: 3.5299°
orbit number at epoch: 45267

The dashed part of the orbit path shows where the satellite is in the earth's shadow,  

DLR